Wetbulb
36.63 36.72 36.92 36.33 36.36 36.21 36.27 36.87 37.42 37.78 38.54 39.42 40.77 40.89 42.07 43.52 42.71 43.13 43.62 42.53 43.04 45.13
33.88 34.03 33.86 34.14 34.56 34.39 34.92 36.56 36.00 36.36 36.83 37.90 38.90 39.58 40.87 39.81 39.07 40.14 40.11 40.09 40.06 40.86
32.45 32.77 32.79 32.70 32.09 32.43 33.01 33.92 34.07 34.58 35.59 36.25 37.27 37.29 37.27 37.33 37.23 37.04 37.57 37.98 37.57 38.06
30.83 31.08 31.20 30.62 30.65 30.88 31.63 31.89 32.35 33.30 34.14 34.52 34.62 34.59 34.25 34.52 34.74 34.67 35.26 36.09 36.32 36.35
29.51 29.26 28.71 28.51 28.85 29.75 29.38 30.55 30.90 31.82 32.43 33.09 32.62 32.75 31.99 30.99 31.37 31.52 32.38 34.04 34.26 33.92
27.26 27.17 26.92 27.05 27.63 28.26 28.30 28.64 29.59 30.49 30.61 31.45 31.06 30.35 30.20 29.64 29.54 30.41 31.88 32.37 30.88 30.39
25.63 25.97 25.74 26.37 26.60 27.01 27.26 27.31 28.07 28.92 29.19 30.31 29.99 29.53 28.89 28.20 28.12 29.24 29.82 30.27 29.65 28.86
25.60 25.33 25.25 25.32 25.60 26.00 26.29 26.69 27.28 27.21 27.67 28.49 29.20 29.58 28.05 27.31 27.30 26.76 27.00 27.69 27.84 27.84
24.67 24.80 24.83 24.82 25.08 25.26 25.18 25.34 25.71 25.60 25.84 25.78 28.74 30.02 29.72 27.80 25.96 26.06 26.03 24.91 25.48 26.18
23.77 23.53 23.82 23.99 23.90 23.91 23.43 24.18 23.94 24.09 24.85 24.74 26.20 28.99 28.60 26.85 25.32 24.63 24.25 23.94 23.98 23.85
22.79 22.50 23.24 23.01 22.52 21.92 22.54 22.56 22.75 23.21 24.08 24.19 25.32 27.16 27.35 25.41 23.46 23.21 22.50 22.68 22.98 22.59
21.94 21.79 22.20 21.47 21.47 21.32 21.59 22.19 22.08 23.30 23.25 23.18 23.67 25.50 25.93 23.88 21.79 21.44 20.91 21.59 21.64 21.47
21.48 21.12 20.46 20.45 20.43 21.35 21.07 21.66 22.32 22.64 22.28 23.22 20.39 23.31 24.27 23.44 20.81 19.61 19.09 19.56 20.44 21.38
18.62 19.05 19.42 18.90 19.78 19.93 20.15 20.21 20.70 20.81 21.27 21.42 19.93 19.43 22.24 22.62 19.78 19.70 18.05 17.60 17.82 18.33
MSLP
1022.51 1022.50 1022.57 1022.61 1022.70 1022.78 1022.80 1022.81 1022.80 1022.61 1022.37 1022.10 1021.84 1021.61 1021.34 1021.34 1021.25 1021.10 1020.92 1020.72 1020.72 1020.33
1022.84 1022.85 1022.99 1023.11 1023.11 1023.12 1023.13 1022.85 1023.03 1022.91 1022.71 1022.44 1022.16 1021.98 1021.79 1021.89 1021.88 1021.75 1021.59 1021.51 1021.38 1021.25
1023.12 1023.15 1023.22 1023.35 1023.46 1023.48 1023.48 1023.41 1023.36 1023.23 1023.10 1022.89 1022.70 1022.65 1022.54 1022.54 1022.57 1022.39 1022.24 1022.14 1021.97 1021.88
1023.28 1023.37 1023.46 1023.63 1023.83 1023.91 1023.83 1023.79 1023.74 1023.60 1023.49 1023.48 1023.52 1023.46 1023.37 1023.26 1023.25 1023.08 1022.88 1022.64 1022.47 1022.38
1023.45 1023.58 1023.76 1023.85 1023.92 1024.02 1024.17 1024.15 1024.03 1023.91 1023.89 1023.98 1024.20 1024.17 1024.13 1024.11 1023.98 1023.75 1023.50 1023.27 1023.10 1023.09
1023.65 1023.80 1024.00 1024.06 1024.15 1024.29 1024.38 1024.46 1024.40 1024.27 1024.26 1024.43 1024.63 1024.76 1024.75 1024.69 1024.51 1024.28 1024.01 1023.89 1023.76 1023.66
1024.02 1024.00 1024.34 1024.14 1024.23 1024.38 1024.52 1024.61 1024.59 1024.52 1024.52 1024.72 1024.85 1025.02 1025.02 1024.93 1024.76 1024.64 1024.57 1024.43 1024.24 1024.11
1024.30 1024.29 1024.33 1024.36 1024.35 1024.52 1024.67 1024.84 1024.88 1024.89 1024.82 1024.85 1024.94 1025.06 1025.17 1025.15 1025.02 1024.92 1024.74 1024.73 1024.64 1024.38
1024.50 1024.56 1024.48 1024.55 1024.54 1024.62 1024.78 1024.92 1025.04 1025.13 1025.14 1025.13 1025.19 1025.21 1025.28 1025.45 1025.45 1025.26 1025.09 1024.99 1024.83 1024.62
1024.33 1024.55 1024.62 1024.82 1024.77 1024.88 1025.02 1025.13 1025.23 1025.34 1025.37 1025.43 1025.44 1025.49 1025.30 1025.49 1025.66 1025.61 1025.56 1025.34 1025.23 1024.94
1024.21 1024.44 1024.55 1024.79 1024.88 1025.11 1025.18 1025.18 1025.24 1025.50 1025.50 1025.52 1025.31 1025.46 1025.41 1025.56 1025.70 1025.64 1025.83 1025.67 1025.52 1025.34
1024.11 1024.25 1024.30 1024.53 1024.85 1025.03 1025.24 1025.41 1025.38 1025.42 1025.61 1025.74 1025.92 1025.57 1025.64 1025.69 1025.80 1025.75 1025.77 1025.66 1025.69 1025.31
1023.90 1024.14 1024.37 1024.65 1024.84 1024.96 1025.00 1025.02 1025.44 1025.30 1025.44 1025.46 1026.01 1025.63 1025.69 1025.63 1026.01 1026.08 1026.08 1025.80 1025.82 1025.39
1023.90 1024.13 1024.43 1024.72 1024.98 1024.85 1025.06 1025.55 1025.67 1025.37 1025.57 1025.49 1026.02 1026.06 1025.84 1025.84 1025.90 1026.02 1025.92 1025.75 1025.68 1025.44
Wind_Speed
6 4 4 6 4 4 4 4 6 6 6 7 7 7 7 6 7 8 7 11 8 6
5 6 5 6 5 4 4 5 6 6 6 6 6 8 7 7 8 7 7 7 8 6
5 5 5 5 6 5 5 6 6 6 6 7 9 9 9 7 8 8 6 6 8 7
5 5 5 5 5 5 5 6 6 6 6 8 9 9 8 7 8 8 7 6 7 8
5 5 5 5 5 5 5 5 5 6 6 8 9 9 9 8 8 8 8 7 8 9
5 5 5 5 5 5 5 5 5 5 6 7 8 9 8 8 7 7 7 8 8 8
4 5 4 5 5 5 5 5 5 5 5 7 8 8 8 7 6 6 7 8 8 8
4 4 4 4 5 5 5 5 5 5 6 5 7 7 8 7 6 6 6 7 7 8
4 4 4 4 4 5 5 5 5 5 5 5 6 12 14 9 6 6 6 7 7 7
5 5 4 4 5 5 5 5 5 5 5 4 4 11 13 12 5 6 7 8 8 9
6 5 5 5 5 4 3 4 4 4 4 3 4 10 10 11 6 5 7 8 8 9
6 6 5 6 5 4 3 3 3 3 3 3 4 10 10 9 6 6 8 8 8 8
6 6 6 5 5 4 2 4 2 3 4 6 5 9 9 10 5 6 5 6 8 11
5 5 6 5 3 4 4 3 2 4 3 6 6 7 9 10 6 5 6 7 7 7
Wind_Direction
56 58 59 58 58 49 33 37 19 14 13 13 20 13 8 33 25 24 24 26 20 16
71 71 76 63 59 48 35 31 28 18 15 16 18 22 30 42 27 30 24 25 19 24
84 75 77 68 57 45 33 30 30 24 23 22 36 36 33 37 22 29 21 25 21 21
89 80 78 73 60 45 40 32 31 26 30 32 50 37 34 26 23 24 19 12 19 22
93 86 82 75 64 53 49 36 35 29 34 49 50 41 36 26 16 14 12 10 21 23
105 98 94 86 74 61 57 45 36 37 38 64 58 45 33 24 10 356 12 26 23 20
116 107 104 97 86 77 69 58 46 46 43 79 64 51 35 20 8 19 27 27 19 14
123 113 106 95 89 84 69 61 63 54 44 61 61 44 35 18 24 24 20 24 15 5
135 127 117 109 101 91 78 71 70 58 60 47 67 47 37 36 23 20 23 10 7 356
148 140 126 117 101 88 82 82 76 69 71 58 60 39 39 33 27 17 13 5 359 356
147 144 135 117 103 87 82 88 86 73 74 76 67 41 31 42 28 27 10 357 355 354
154 148 138 127 119 110 98 88 85 87 81 67 64 36 18 43 21 14 0 354 345 359
148 144 131 126 124 108 120 113 119 108 74 84 70 28 13 33 6 354 356 345 340 348
131 141 132 120 120 107 104 80 72 97 77 101 74 23 7 19 1 343 353 339 340 337